RESURS P2 (40360 NORAD) Tracking and Keplerian Element Data

This shows tracking and keplerian element data for the satellite.

Feedback or suggestion? Click here.




ElementValue
Catalog40360
NameRESURS P2
Epoch Orbit19857
Epoch Day196.22797182
Epoch Year2018
RAAN287.9957
Inclination97.2697
Eccentricity0.000955
Argument of Perigee171.5299
Mean Anonmoly219.8871
Mean Motion15.32659732
Decay Rate5.72E-06
L11 40360U 14087A 18196.22797182 .00000572 00000-0 20532-4 0 9996
L22 40360 97.2697 287.9957 0009550 171.5299 219.8871 15.32659732198574

Live tracking and technical data element details for RESURS P2 (NORAD 40360). RESURS P2 can be tracked NOW for your location showing map with azimuth and elevation plus other details from your city location.

Track the satellite on the map from your city or location and see movement details for azimuth, elevation, latitude, longitude, range, height, and movement on the map or in text.







IsCatalogInMostPopularTable: catalog: 40360, numindb: 73
Update: records affected: 1



GetName: 40360 RESURS P2

Hit Count: updated at: Sun, 15 Jul 2018 23:14:30 GMT